Location: Isola Pescaroli
(45.0500°N, 10.1667°E)
Time: 01:55:36
(UTC+00:00)

MOS 1 - Pass Details

Date: 03 March 2021
Orbit: 878 x 891 km, 99.1° (Epoch: 20 April)

Event Time Altitude Azimuth Distance (km) Brightness Sun altitude
Exits shadow 19:26:08 36° 169° (S) 1,386 5.0 -24.7°
Maximum altitude 19:28:39 84° 254° (WSW) 898 4.2 -25.1°
Drops below altitude 10° 19:34:22 10° 344° (NNW) 2,558 7.1 -26.1°
Sets 19:36:46 0° 345° (NNW) 3,499 7.8 -26.5°
